GFSGL_sfc_wetblb_057.txt.gz
Wetbulb
67.32 67.21 67.23 67.43 67.84 67.95 67.34 68.34 67.91 67.19 66.67 67.51 67.64 67.92 67.16 65.64 65.88 65.77 66.32 66.55 66.20 65.00 65.76 66.87 67.52 67.90 67.16 67.27 67.00 66.71 64.74 61.58 57.97 58.50 59.33 59.04 58.52 58.66 59.00 59.40 59.98 59.63 60.18
66.11 64.70 63.98 64.73 66.89 67.31 67.43 67.25 67.51 66.39 67.08 66.76 67.16 65.93 65.56 65.73 64.63 63.64 63.68 64.21 63.22 62.61 64.30 63.97 64.86 68.02 66.98 66.75 66.03 64.45 63.43 60.83 59.63 56.19 57.03 56.63 56.59 57.56 57.92 58.04 58.70 59.33 58.17
65.51 64.31 63.28 63.39 66.07 67.01 66.71 66.88 67.38 66.07 65.59 65.64 64.92 64.45 64.39 65.11 64.76 64.19 63.85 62.64 61.25 60.93 61.18 61.16 61.78 63.92 64.97 64.56 63.74 63.07 60.54 59.76 59.30 57.13 55.28 56.61 56.25 56.79 56.11 56.47 56.69 57.23 58.38
66.17 64.65 65.20 67.14 67.28 66.44 66.63 66.02 66.12 65.80 65.04 64.86 64.47 64.22 63.38 60.86 61.08 63.81 64.34 62.50 60.99 59.98 59.70 59.75 59.86 60.71 63.19 63.26 62.14 60.98 60.21 58.28 56.96 56.15 55.57 55.55 56.31 56.71 56.49 55.19 54.93 54.90 53.91
66.00 66.36 68.17 68.46 68.39 67.32 66.73 66.56 66.47 65.88 65.49 64.98 64.39 62.37 60.18 59.37 60.39 61.44 63.04 63.07 61.73 60.37 59.00 58.86 59.75 62.74 63.06 63.96 61.88 59.07 58.35 58.00 56.51 55.89 55.45 55.45 55.12 55.16 54.99 55.01 55.97 53.67 54.61
66.96 67.89 68.63 68.73 66.84 66.64 66.72 66.16 65.72 65.29 65.12 65.12 63.34 59.94 58.18 59.57 59.35 60.49 62.28 61.66 61.83 61.71 59.37 59.30 59.70 60.80 61.14 61.00 61.42 62.36 59.66 56.67 55.49 54.64 53.92 52.69 54.77 54.59 55.41 55.75 56.93 55.61 54.83
68.28 68.72 68.33 67.88 66.64 66.96 67.46 66.74 66.30 65.83 65.89 64.74 63.11 60.28 58.15 56.95 58.66 57.54 60.96 61.39 60.24 58.81 58.02 58.73 57.82 57.66 58.62 56.92 56.65 57.93 59.51 61.28 60.41 57.25 55.33 54.99 54.39 56.39 56.17 58.11 56.85 56.41 56.51
67.95 68.73 68.01 67.55 66.92 66.52 65.82 66.00 65.48 66.31 65.31 64.80 64.80 61.82 58.43 56.45 58.29 54.92 57.10 61.31 60.26 58.35 57.50 58.29 55.21 52.74 54.16 52.64 49.69 48.26 48.20 52.96 57.37 59.55 58.37 56.35 55.37 56.08 57.80 56.88 56.33 54.96 55.61
68.40 68.82 68.23 68.64 66.63 65.95 65.73 65.39 65.43 65.65 65.05 64.38 65.00 63.30 59.01 55.85 55.61 53.12 55.15 60.81 58.94 56.23 53.41 55.10 55.67 51.05 53.65 54.96 49.79 47.04 45.63 45.64 52.10 53.80 53.62 53.42 53.99 54.72 55.00 53.81 54.12 54.65 53.03
69.23 69.25 69.57 69.16 66.99 66.04 66.35 65.95 66.13 65.32 64.62 64.00 63.93 63.38 60.22 57.94 53.18 51.70 53.01 58.41 57.76 55.97 50.27 48.64 52.64 50.49 51.53 53.18 51.00 48.21 47.10 48.20 48.71 48.85 48.90 50.09 51.93 54.47 55.80 51.33 50.21 47.93 49.72
69.50 69.67 69.40 69.05 67.41 67.46 67.57 66.65 66.10 64.38 63.71 63.15 63.82 62.04 61.54 59.23 52.83 52.75 51.96 56.22 59.05 56.20 50.79 47.72 46.58 50.10 49.17 50.27 53.92 54.90 51.52 52.60 54.67 51.89 51.51 52.13 53.01 51.80 50.04 49.38 49.51 49.25 48.97
68.51 69.33 68.62 68.40 68.58 68.75 67.59 66.37 65.51 64.39 62.95 62.55 63.06 62.23 61.81 59.56 54.06 52.81 53.20 54.09 55.95 55.44 50.36 48.36 45.51 47.26 46.23 47.41 48.20 48.05 48.29 49.14 47.82 49.45 51.96 50.40 51.99 50.54 50.28 48.83 49.54 49.44 50.08
68.35 67.72 67.92 67.86 67.70 67.75 66.60 66.46 64.21 64.24 63.65 62.16 61.73 61.35 61.82 60.63 54.84 50.20 50.15 51.26 54.54 54.13 49.43 48.96 47.43 45.58 45.21 46.10 48.26 48.66 48.66 47.25 49.28 47.35 45.95 45.99 46.48 46.31 48.05 49.88 50.33 50.79 50.41
64.66 65.64 64.82 64.83 63.24 63.43 63.69 64.69 65.80 65.19 64.05 63.08 62.50 61.27 60.49 60.21 56.11 53.70 52.53 51.31 51.60 49.89 50.85 47.74 48.33 47.46 49.42 49.75 47.95 47.62 47.38 47.06 47.35 46.56 46.08 46.36 47.08 48.42 48.02 45.61 45.24 48.17 48.96
64.01 64.49 64.87 63.43 61.88 58.56 54.08 53.35 55.02 59.35 58.54 64.33 63.66 62.68 60.00 59.08 57.96 52.96 52.85 52.57 51.51 47.23 46.77 46.66 49.07 47.27 46.47 46.41 46.65 47.45 46.84 46.23 47.76 47.17 47.14 46.74 46.39 46.53 45.59 46.23 45.26 45.26 43.69
63.47 62.98 63.86 63.83 59.36 55.63 55.38 54.13 50.11 47.23 45.30 48.41 50.22 56.71 55.24 53.58 50.41 47.59 45.97 46.13 46.58 45.55 46.29 47.92 47.08 47.15 48.04 48.10 48.48 48.67 47.68 49.88 48.32 48.02 47.00 46.11 45.68 44.55 43.71 44.73 46.48 44.09 43.95
61.96 62.32 62.91 60.31 59.06 56.59 55.52 55.02 54.68 51.66 45.80 45.15 44.79 46.60 49.32 49.68 47.87 46.24 46.38 44.26 43.77 45.89 45.44 46.61 47.86 48.05 49.44 51.41 51.22 48.35 46.03 48.26 47.64 49.16 47.72 46.38 46.65 47.16 44.28 44.37 46.44 44.99 45.39
60.69 56.01 60.97 61.97 60.65 57.83 55.79 54.36 54.69 53.66 53.55 52.83 45.15 46.53 44.54 43.52 42.78 42.25 42.62 45.48 44.53 44.09 46.22 46.38 47.61 51.20 52.83 50.34 49.61 49.13 48.18 47.54 47.58 49.24 47.21 47.41 47.17 46.05 45.51 45.88 44.69 44.94 43.97
59.17 60.41 60.78 61.47 59.60 58.15 57.61 56.21 55.08 54.85 54.49 52.84 47.76 45.69 42.42 41.67 41.93 41.99 43.03 48.27 47.68 46.21 46.01 46.23 47.05 48.61 52.01 51.90 49.79 49.80 48.98 48.71 49.13 48.20 47.46 48.34 47.60 49.26 45.90 46.36 45.97 46.84 45.45
59.62 59.32 58.53 59.46 58.79 58.36 57.89 56.62 56.11 55.71 55.30 53.01 50.71 50.31 45.53 45.10 45.60 45.36 45.03 45.89 48.43 50.21 49.69 48.40 48.65 49.71 53.74 52.68 51.60 49.71 48.59 46.72 47.01 47.23 46.90 47.93 48.81 47.16 46.61 46.83 45.98 45.56 45.10
58.54 58.28 58.43 59.41 59.94 59.65 59.21 57.79 56.44 56.12 57.22 55.05 53.59 52.64 45.29 48.31 48.57 48.58 47.32 46.39 47.76 48.89 49.75 51.33 50.76 52.03 51.98 52.64 51.76 50.27 49.44 49.12 48.78 48.85 47.90 49.94 51.92 49.40 48.81 47.36 46.32 46.13 45.50
58.81 58.28 58.07 58.20 59.14 58.74 59.25 58.81 58.76 57.27 56.63 56.16 54.87 53.27 42.44 48.18 50.48 50.80 50.52 50.53 51.02 52.26 53.74 53.01 54.24 54.90 53.65 53.46 52.45 51.00 50.20 50.16 50.40 52.15 51.96 50.64 51.03 49.01 47.30 46.17 45.59 44.60 44.15
59.54 59.10 59.55 58.40 59.51 57.29 58.89 59.85 60.07 60.43 59.82 59.56 58.52 56.19 48.66 49.04 52.41 52.97 53.75 54.20 54.18 54.27 54.41 53.49 51.17 50.52 50.44 51.71 53.12 53.24 51.71 50.94 51.91 50.33 49.15 48.78 48.09 47.44 46.21 45.38 44.83 43.73 42.52
59.23 59.11 58.46 58.52 58.98 58.53 59.25 58.87 59.68 55.97 59.06 58.90 54.72 52.79 52.10 52.00 52.10 51.52 51.07 52.32 54.12 54.21 53.92 52.71 51.73 51.43 51.71 52.14 53.68 52.07 50.93 51.54 50.36 50.48 50.95 47.88 46.60 44.58 43.92 43.18 42.27 41.63 40.51
59.08 58.68 57.68 58.54 56.17 54.33 53.46 52.78 53.51 53.37 54.30 53.73 53.35 53.62 53.48 52.89 49.79 52.32 52.61 52.32 52.23 52.83 52.59 52.59 53.14 53.12 52.87 52.81 47.72 43.96 38.91 35.20 43.14 41.68 44.86 43.18 42.86 42.34 41.73 41.21 40.70 39.59 38.85
59.08 58.88 57.97 56.32 52.53 52.30 52.74 53.98 54.07 54.64 53.84 54.38 53.91 54.23 53.34 52.73 53.01 53.24 53.59 53.84 54.35 54.86 54.31 53.38 52.83 53.20 51.83 47.13 43.17 34.17 32.45 31.85 34.24 33.19 38.92 39.01 37.76 36.54 36.91 37.33 38.53 37.88 37.42

GFSGL_sfc_wetblb_063.txt.gz
Wetbulb
66.06 64.76 64.41 63.22 62.77 64.27 66.35 67.01 66.48 65.69 64.87 65.24 65.05 64.09 63.31 62.58 62.82 62.14 61.45 61.83 61.92 61.91 62.92 63.99 64.67 64.45 64.21 64.89 64.76 63.57 63.73 61.78 57.91 57.55 58.59 58.92 58.65 58.61 59.13 59.59 60.11 60.02 60.73
64.87 64.47 63.41 63.17 63.89 64.84 65.79 65.42 65.33 64.63 65.42 65.11 64.41 63.72 62.66 62.22 61.31 59.75 59.39 59.94 60.08 60.37 61.00 62.74 63.09 64.30 62.31 61.89 61.71 60.16 61.16 60.87 59.62 56.82 57.09 56.78 57.07 57.95 57.81 57.69 58.15 58.72 58.76
63.63 63.70 63.45 64.32 64.77 64.42 64.12 64.33 64.69 64.08 63.65 63.64 63.74 63.23 62.42 62.02 59.55 58.45 58.55 58.40 58.56 58.81 59.91 61.02 61.56 61.73 60.22 59.72 58.67 58.71 59.22 60.24 59.85 57.56 55.44 56.58 56.58 56.90 56.26 56.74 56.96 57.32 57.67
61.87 62.12 62.73 63.32 64.49 63.73 64.12 63.79 63.33 62.97 62.19 61.97 62.20 61.92 62.04 62.57 61.48 59.20 57.64 57.27 57.44 57.90 59.05 60.16 60.62 60.35 59.73 58.47 57.53 58.97 59.61 58.76 58.17 56.76 55.74 55.48 56.02 56.42 56.44 55.08 54.60 55.53 55.03
60.61 61.36 62.36 64.02 64.05 64.19 63.98 63.56 63.53 62.59 61.99 61.81 59.59 58.25 59.28 61.73 62.68 60.05 58.40 56.96 56.88 57.38 57.68 59.20 60.51 63.10 62.69 60.50 57.50 55.28 58.25 57.96 57.25 56.40 55.36 55.30 55.13 55.13 55.14 55.75 54.15 54.06 53.80
61.73 62.82 64.70 65.23 63.88 63.63 63.81 63.91 63.94 63.07 62.22 61.46 57.88 57.47 58.03 59.94 58.96 60.72 60.25 57.69 57.73 57.10 56.24 56.60 57.69 59.16 61.02 61.01 60.25 58.83 57.00 57.32 56.75 56.30 55.57 55.14 55.04 55.77 55.95 55.75 54.60 54.70 51.32
63.25 64.85 66.17 65.66 64.10 63.90 64.35 63.90 63.23 62.62 63.39 58.90 57.48 56.92 57.06 57.01 58.07 58.36 60.10 58.44 57.62 57.22 55.05 54.50 55.07 56.22 57.48 58.16 59.30 59.24 59.14 59.03 58.59 56.22 54.52 53.80 53.01 55.96 56.88 56.10 56.12 52.78 52.58
64.30 65.77 66.28 65.48 64.25 63.78 63.64 63.11 62.62 62.90 62.71 60.81 60.01 58.10 57.29 56.95 55.82 56.78 58.55 56.92 56.22 55.69 54.42 52.92 51.82 51.85 52.91 54.86 54.31 54.42 54.64 55.18 55.92 56.10 54.95 54.41 54.71 55.12 55.51 58.17 57.63 54.87 54.81
65.51 66.13 65.88 64.94 63.94 63.57 63.10 62.87 62.69 63.02 61.93 60.65 60.76 57.73 56.94 56.43 53.93 55.45 57.12 55.79 54.48 54.37 53.75 52.17 51.06 49.42 52.12 50.82 49.20 47.27 46.57 46.73 53.23 55.29 55.67 55.69 56.08 56.40 56.44 55.22 53.32 51.92 49.89
66.14 66.65 65.89 65.29 64.57 63.94 63.17 62.64 62.64 62.62 62.68 63.27 61.22 58.71 56.07 56.54 51.46 53.64 56.88 56.22 52.94 51.78 50.26 50.77 54.28 50.83 50.77 48.51 44.52 43.27 42.52 42.82 45.08 46.43 48.92 49.94 49.57 51.51 54.71 52.26 51.91 48.83 47.76
66.40 66.87 66.18 65.57 64.88 64.66 63.10 62.43 62.65 62.54 62.42 61.80 61.90 60.87 58.08 55.45 53.52 50.21 53.19 57.39 55.29 51.36 49.79 48.60 48.75 50.72 49.25 46.84 47.68 47.50 46.03 46.58 49.49 47.13 48.18 48.60 47.97 46.14 45.70 46.38 47.48 50.16 48.28
65.84 66.09 66.56 66.06 65.38 64.45 64.09 63.15 62.59 62.30 61.28 60.42 60.40 60.82 60.38 57.60 52.54 49.62 49.80 54.39 55.37 52.98 49.66 48.53 48.56 47.84 47.19 47.86 47.69 49.30 48.37 51.54 50.14 48.75 48.22 47.22 47.34 47.14 45.89 45.33 45.68 46.51 47.62
65.05 65.97 65.72 65.01 64.88 63.83 62.75 62.73 62.15 61.71 60.50 59.18 59.24 59.64 59.08 59.54 57.02 50.32 48.82 50.23 53.48 54.73 51.56 48.98 47.57 45.02 44.73 46.48 49.09 47.92 48.31 47.14 46.27 46.38 48.79 48.29 48.60 48.52 46.01 46.29 46.43 46.38 46.78
63.26 63.73 63.38 63.46 63.12 63.96 64.17 65.01 64.53 63.80 62.92 62.11 60.64 60.32 60.46 59.70 58.85 56.34 53.99 53.11 54.63 55.56 52.93 49.03 47.21 46.46 46.47 46.42 46.13 46.20 45.31 45.35 45.68 45.71 45.96 45.73 43.55 44.66 45.00 44.55 41.63 45.54 45.59
61.48 61.21 61.83 61.31 61.75 59.68 57.89 58.03 59.84 57.89 57.41 62.02 62.99 62.55 61.19 60.66 60.60 55.26 53.10 54.67 55.67 53.04 48.40 44.81 42.94 43.24 43.52 43.64 42.96 44.13 43.76 44.81 44.49 43.91 43.31 43.66 43.39 44.14 43.59 42.26 41.03 41.71 40.75
60.78 60.46 60.39 62.11 60.68 59.78 58.45 56.48 50.13 48.89 45.81 44.36 44.17 48.33 58.69 53.96 50.52 47.62 46.17 47.24 47.35 45.52 46.81 45.75 43.08 43.84 45.03 44.35 43.57 44.11 44.83 45.64 44.13 44.69 43.81 44.18 43.52 43.39 42.33 41.42 42.01 40.61 40.83
58.48 58.88 58.91 59.56 60.35 58.19 57.19 57.08 56.76 52.01 46.35 44.54 43.99 44.36 43.81 47.07 46.53 45.62 46.53 44.90 44.88 43.55 48.60 46.39 46.15 46.29 46.11 45.56 44.05 44.60 45.73 45.17 45.52 44.97 43.86 43.66 43.61 41.82 41.71 41.14 41.40 41.70 41.26
56.86 54.32 57.70 57.63 57.85 58.78 58.14 57.12 56.08 55.29 55.30 55.42 44.40 44.16 43.25 42.91 42.91 41.64 41.82 45.06 46.59 45.30 48.31 48.16 47.03 46.69 46.33 45.99 45.73 45.53 45.78 44.68 44.87 45.30 43.98 43.47 43.64 43.99 42.57 41.84 42.66 42.41 41.85
56.48 56.38 56.34 56.18 56.90 56.52 58.30 55.48 54.16 55.26 55.06 52.34 52.06 47.33 43.17 40.45 41.37 40.73 42.54 55.10 53.89 51.14 49.30 48.43 47.61 47.00 47.85 47.66 47.17 47.56 48.06 46.68 44.74 44.28 45.07 44.06 43.66 43.07 42.62 42.81 42.88 42.76 42.81
56.76 56.12 55.47 55.82 55.12 55.32 55.52 54.96 54.43 55.22 55.12 52.28 51.66 53.28 47.94 45.67 48.68 49.09 48.20 52.18 53.91 53.58 52.32 50.89 50.63 48.10 47.89 49.05 49.79 48.09 47.39 47.38 47.70 46.27 46.36 45.48 44.68 44.32 43.69 43.55 43.35 43.10 42.52
57.39 56.58 56.24 55.72 54.62 55.08 55.40 55.30 56.16 56.78 54.23 53.71 53.59 53.75 46.70 50.16 51.64 51.66 50.47 49.89 52.24 52.54 52.18 51.58 51.97 49.02 47.04 47.24 47.56 47.34 47.00 47.64 47.02 47.18 47.33 46.64 45.96 44.76 44.78 44.74 44.57 46.88 42.95
56.96 56.08 55.60 55.26 54.94 54.82 55.70 55.94 55.78 55.04 55.49 55.98 55.01 52.39 42.99 48.23 50.52 50.81 51.22 52.04 51.97 52.01 52.89 52.72 51.61 49.64 48.31 47.95 47.97 48.66 48.95 48.04 47.98 47.88 47.52 47.26 46.25 46.19 45.17 44.59 44.56 44.57 45.95
56.44 56.34 56.00 55.50 55.50 54.28 54.72 54.94 55.54 56.26 56.84 56.54 57.57 54.78 48.77 49.15 50.56 51.19 50.26 50.11 50.51 50.35 49.85 49.41 49.28 49.32 50.28 50.40 50.46 50.57 49.87 49.71 49.80 49.74 48.84 48.10 46.97 46.78 46.48 46.17 47.00 47.00 45.83
57.02 57.28 56.58 55.80 55.58 55.30 55.02 55.24 54.06 49.68 53.74 56.86 55.68 55.64 54.21 52.27 51.64 51.08 51.00 50.61 50.31 50.16 49.29 49.20 50.07 50.62 51.80 52.07 52.37 52.60 53.09 52.83 52.19 50.96 50.62 49.87 48.92 47.04 48.72 47.71 45.57 44.78 43.95
56.68 56.76 55.92 55.42 55.08 53.19 52.12 51.07 51.25 51.06 51.42 51.44 49.50 53.96 53.87 51.43 50.43 49.84 50.70 50.42 49.60 50.00 49.82 50.65 51.32 52.19 52.52 52.48 51.91 52.22 49.74 41.03 48.90 46.71 50.86 50.79 49.77 48.58 48.23 46.50 44.56 42.86 41.15
55.16 55.52 55.00 53.12 51.32 51.69 51.85 51.08 49.64 49.28 49.30 50.20 50.73 51.00 50.89 50.49 50.67 50.21 50.55 51.67 52.08 53.23 51.97 51.75 47.86 44.17 43.38 45.04 43.45 39.50 34.80 33.76 40.62 39.69 47.02 45.97 43.14 40.40 39.62 39.18 39.47 38.88 39.38

GFSGL_sfc_wetblb_066.txt.gz
Wetbulb
67.14 65.56 64.58 64.11 64.85 66.78 67.18 67.58 66.98 67.15 67.22 66.87 65.66 65.13 64.40 64.34 64.29 64.02 63.64 64.13 64.24 64.95 65.73 66.38 66.35 67.02 67.51 67.65 67.43 67.05 65.84 62.89 57.83 57.79 58.98 59.40 58.83 58.95 59.49 60.21 60.54 60.54 61.29
66.13 65.12 63.77 63.83 65.19 66.42 66.78 67.07 66.99 66.13 66.27 66.42 65.40 64.38 63.98 62.82 61.65 61.60 61.90 62.50 63.28 63.76 64.30 65.19 65.01 65.48 65.10 65.58 65.38 64.09 62.89 62.70 60.06 56.74 57.47 57.41 57.61 58.25 58.29 58.53 58.78 59.49 60.34
65.46 64.32 63.48 63.88 65.67 66.04 65.78 65.55 65.77 65.80 65.58 65.40 64.76 63.94 63.59 61.27 60.50 60.87 61.21 61.14 61.74 62.36 63.12 63.66 63.86 63.73 63.00 62.64 62.76 61.88 61.72 61.37 60.85 57.96 55.74 57.14 56.96 57.48 56.56 57.72 58.08 57.32 59.40
64.66 64.04 64.25 65.07 65.93 65.17 65.46 65.18 64.93 64.71 64.40 64.42 64.91 64.69 64.23 62.28 60.63 60.36 60.43 60.34 60.84 61.51 62.46 63.03 62.97 63.06 62.01 61.80 61.79 62.24 61.30 60.57 59.55 57.60 56.18 56.28 56.40 56.98 56.88 55.28 54.98 56.55 55.87
63.20 63.59 64.38 65.28 65.69 65.22 65.09 65.07 64.73 64.43 64.09 63.61 62.14 61.93 62.86 63.87 61.69 60.43 59.97 60.06 60.29 60.15 60.42 61.85 63.73 63.67 61.45 61.07 61.00 61.10 60.65 59.19 58.43 56.98 55.92 56.00 55.44 55.34 55.08 56.33 55.37 55.07 55.13
62.28 63.60 64.70 65.55 65.11 65.04 65.09 64.65 64.60 64.27 63.89 62.88 61.18 60.84 61.86 63.00 59.79 59.54 60.57 60.29 60.03 59.42 59.14 59.23 60.74 61.48 61.54 60.38 59.90 59.83 61.30 59.58 58.45 57.37 56.44 55.74 55.76 56.70 57.12 56.01 55.33 54.60 55.05
62.44 64.33 65.66 65.50 64.99 64.93 65.20 65.20 64.78 64.31 64.27 62.91 60.31 60.17 60.53 61.01 57.78 58.74 60.06 60.84 60.22 59.70 58.79 58.57 59.42 59.51 60.62 60.31 59.55 59.34 59.69 59.65 60.17 61.06 59.08 58.04 57.24 58.23 58.41 56.78 56.98 57.26 57.82
63.25 65.04 66.51 66.04 65.00 65.13 64.97 65.08 64.86 64.61 64.42 62.46 61.11 59.88 59.46 58.96 55.92 56.14 58.58 60.77 60.17 59.23 58.11 56.75 57.81 58.46 58.82 59.50 59.27 58.72 58.61 59.09 60.13 60.06 60.53 59.40 59.99 60.65 60.31 60.03 59.18 57.26 57.90
64.00 65.51 66.89 66.60 65.48 64.84 64.74 64.58 64.62 64.69 64.10 63.08 61.90 60.31 60.19 60.10 53.77 54.68 57.88 58.98 58.54 57.93 56.63 55.61 55.48 56.99 53.03 53.97 57.61 56.20 55.61 55.16 55.72 55.76 56.40 56.02 56.02 56.04 58.62 59.62 58.40 58.04 55.28
64.12 66.27 67.16 66.89 66.04 64.97 64.95 64.69 64.80 64.92 64.65 63.28 62.26 60.71 57.89 60.17 52.55 52.49 57.10 58.20 57.08 56.62 56.14 55.26 54.01 53.80 50.30 49.99 55.48 55.31 55.43 53.25 55.05 55.35 54.22 53.03 55.45 57.10 56.82 60.03 59.09 57.10 55.71
66.02 67.25 66.91 66.80 66.17 66.15 65.57 64.57 64.62 64.84 64.38 63.83 63.27 62.48 60.28 58.75 58.21 51.03 52.89 59.05 58.25 56.02 55.62 54.61 54.35 51.52 47.31 46.00 47.60 52.33 53.03 50.52 51.18 53.71 52.70 52.36 51.89 52.32 53.21 53.95 56.34 56.77 55.19
65.68 66.80 67.38 66.80 66.31 65.29 64.47 64.54 64.37 64.02 63.56 63.09 63.22 62.85 62.84 61.30 53.73 52.46 50.73 53.60 56.15 57.10 55.25 54.79 54.47 48.45 46.93 45.52 49.21 48.14 47.25 50.57 51.89 52.48 52.47 52.24 51.97 51.40 51.14 51.86 53.15 54.60 55.57
64.79 65.60 66.42 67.09 65.89 65.26 64.31 64.06 63.94 63.74 63.10 62.72 62.05 62.37 62.21 62.05 60.04 50.90 50.07 52.13 53.39 57.43 56.85 52.55 49.96 45.93 45.02 48.31 47.86 48.45 49.43 53.09 52.98 52.23 52.61 52.68 53.46 54.02 52.55 52.13 52.86 53.02 53.26
64.85 64.37 64.46 65.25 64.93 65.05 65.25 65.30 64.89 64.16 63.12 63.26 62.33 62.17 62.13 62.17 61.63 59.83 55.68 54.03 52.32 55.90 56.31 52.47 50.06 49.72 48.37 49.90 50.17 50.90 53.63 53.21 53.21 53.73 53.59 54.78 52.37 52.11 52.26 51.72 50.78 52.05 52.38
63.94 63.82 63.68 63.50 63.48 62.26 60.28 61.17 62.80 58.65 59.40 62.96 63.14 62.37 62.19 61.63 62.14 57.18 55.84 56.28 56.48 56.74 54.19 50.25 47.62 47.52 48.54 49.04 49.20 50.01 50.07 50.30 50.48 50.73 50.63 51.00 50.92 50.90 51.30 49.62 48.80 49.20 49.73
62.74 62.94 62.82 62.05 61.51 61.02 61.00 58.61 51.37 51.08 47.46 45.46 44.19 51.44 58.83 52.35 48.00 46.55 46.55 47.62 47.26 47.22 51.63 50.00 49.07 46.40 46.66 48.55 48.68 48.46 49.30 48.92 50.02 49.85 49.93 50.43 49.93 49.85 50.17 48.51 48.37 48.68 48.95
61.63 61.43 61.57 60.24 60.42 59.04 59.25 59.93 59.88 55.48 46.19 44.37 43.29 42.38 42.02 44.37 42.38 42.74 42.92 43.83 44.52 47.46 53.82 50.23 50.68 48.07 47.41 48.15 47.54 48.33 49.58 49.77 50.96 49.74 49.88 49.85 49.81 49.60 48.21 48.47 49.19 49.19 48.75
59.86 55.15 60.30 60.38 60.52 59.65 59.45 59.14 58.57 57.86 57.44 58.44 46.66 46.30 43.27 41.66 42.02 42.20 40.93 43.83 45.92 47.65 53.79 52.76 50.75 49.30 48.01 47.78 48.75 46.87 50.12 50.94 49.23 50.25 50.00 49.61 49.68 49.08 47.88 48.03 47.99 49.27 49.50
59.09 59.07 59.01 58.88 58.82 58.17 59.31 58.91 58.01 57.40 57.21 57.56 55.74 48.82 44.76 40.71 41.11 40.39 40.55 53.17 53.22 51.80 51.52 50.92 52.02 50.79 50.19 49.74 49.53 50.00 49.52 50.76 50.70 50.35 50.37 49.91 49.53 49.19 49.15 49.46 49.26 46.04 47.35
59.23 56.42 56.56 58.20 58.16 58.16 58.14 58.07 57.84 57.29 57.43 57.30 56.14 56.37 53.11 47.80 52.03 52.22 48.92 51.46 55.22 55.42 54.11 53.57 52.08 51.43 50.53 51.12 50.40 49.01 49.29 50.22 51.43 50.85 51.18 51.43 51.10 50.26 50.06 50.27 49.45 49.02 48.42
59.66 59.41 56.40 58.20 57.51 57.89 57.89 57.93 58.08 58.03 58.52 58.03 57.77 57.11 49.38 54.37 54.82 54.01 53.30 52.14 53.41 55.18 55.66 54.91 54.33 53.48 53.04 51.58 50.28 51.05 50.39 51.39 52.08 52.70 52.68 52.62 52.24 50.52 50.50 51.28 50.68 50.16 50.66
59.39 58.85 58.34 57.88 57.58 57.32 57.36 57.90 58.12 58.08 58.06 58.01 58.73 57.68 44.92 51.84 53.70 54.28 55.11 55.16 55.16 55.10 55.90 55.56 54.31 54.95 53.62 52.32 51.59 50.10 49.64 50.79 52.40 52.15 52.21 51.85 52.03 51.83 52.02 51.24 50.75 50.63 50.79
59.57 59.23 58.91 58.58 58.14 55.43 57.55 58.00 57.97 58.21 58.13 58.25 58.31 58.32 57.49 54.75 53.91 53.83 53.38 53.44 53.31 54.01 54.40 54.50 54.52 54.35 54.55 54.21 53.58 53.61 53.01 52.58 53.66 53.69 52.96 52.33 51.73 51.49 51.67 50.18 50.65 50.76 50.50
58.44 58.91 58.45 58.52 58.09 58.15 58.05 57.76 57.41 50.86 53.04 53.76 53.37 54.30 56.67 56.80 55.82 55.33 54.54 54.51 53.86 54.12 53.83 53.49 53.04 52.77 53.62 53.90 54.29 54.39 54.32 55.08 55.20 54.90 53.67 51.59 50.72 49.03 50.82 50.54 50.51 50.29 50.52
57.39 57.95 58.22 58.35 57.89 57.51 55.72 54.32 52.94 52.25 52.04 51.37 50.85 51.68 52.68 53.23 53.24 53.50 53.48 53.99 54.48 54.10 52.44 51.08 49.92 48.13 47.72 51.15 53.65 54.33 50.76 39.86 49.20 48.82 53.75 52.43 51.88 50.73 49.91 49.74 49.38 50.22 49.37
57.53 57.50 56.88 55.26 54.17 54.39 53.47 51.90 51.28 51.65 50.92 51.40 51.87 52.44 53.04 53.23 53.67 54.04 54.48 54.70 54.85 54.28 54.36 54.73 52.91 48.32 43.90 41.60 39.45 35.54 32.94 32.87 38.78 36.15 47.13 51.98 50.58 49.71 48.53 47.80 45.80 43.31 42.24

GFSGL_sfc_wetblb_069.txt.gz
Wetbulb
71.98 72.25 71.38 69.94 70.45 71.78 71.59 71.63 71.78 71.94 71.72 70.98 70.22 69.36 69.41 69.59 69.43 69.42 68.93 69.27 69.64 70.28 70.66 69.95 69.29 70.02 70.37 71.07 71.21 70.27 67.36 64.23 59.66 58.50 59.67 60.24 60.22 61.12 61.61 61.66 61.84 61.88 62.38
71.73 71.09 69.42 69.63 70.73 70.85 71.13 71.32 71.71 71.23 70.98 69.74 68.84 67.64 67.60 65.64 66.01 66.82 67.21 67.81 68.15 68.26 68.80 68.84 68.91 69.10 68.88 69.69 69.82 68.76 66.03 64.31 60.76 57.25 58.44 58.38 58.96 59.46 59.73 60.14 60.30 61.12 61.32
71.34 69.87 68.75 69.36 70.11 70.34 70.62 70.77 70.75 70.49 70.47 69.74 68.62 67.86 65.75 64.97 66.44 66.65 67.30 67.26 67.46 66.96 67.29 68.19 68.28 68.65 68.41 68.76 68.61 66.18 64.19 63.29 61.62 58.78 57.21 58.30 58.14 58.81 58.35 59.75 60.11 61.18 61.28
70.79 69.54 68.28 69.46 70.27 70.24 70.46 70.35 70.13 70.39 69.77 69.56 69.12 68.45 67.23 65.16 65.14 65.74 66.22 66.97 67.14 67.06 66.75 67.02 67.56 67.72 67.81 66.71 67.67 66.83 66.16 64.67 63.64 60.74 57.46 57.45 57.43 57.77 57.95 55.93 55.73 58.31 57.31
69.86 69.14 68.23 69.48 70.57 70.15 69.89 69.72 69.74 69.70 69.70 69.76 69.05 68.68 68.57 67.30 65.10 64.84 65.14 65.65 66.09 66.28 66.26 66.17 66.61 64.59 62.31 64.47 66.47 65.65 65.97 64.17 61.97 58.92 57.21 56.89 56.19 55.43 55.25 56.13 56.50 56.88 58.21
69.57 68.90 69.34 70.01 70.03 69.42 69.56 69.36 69.42 69.17 68.86 68.37 67.87 67.30 67.25 67.61 59.65 59.91 63.88 64.92 64.26 64.52 64.77 65.31 65.37 64.80 62.08 60.80 61.56 61.89 63.90 62.94 61.57 59.50 58.19 56.73 56.89 57.04 58.12 56.20 56.92 56.37 55.52
68.54 68.98 69.30 70.05 69.35 69.52 69.71 69.25 68.91 68.28 68.66 67.74 66.49 65.55 66.06 67.38 58.97 59.02 60.37 66.81 66.05 65.43 64.73 65.57 64.88 63.71 64.39 64.81 60.59 60.47 60.58 60.36 62.59 63.24 59.78 59.75 58.56 59.55 59.12 57.83 57.36 58.63 59.37
67.78 68.11 69.08 69.76 69.49 69.64 69.30 69.20 69.17 68.98 68.42 68.33 67.33 66.17 64.44 64.58 57.04 56.81 59.31 65.81 65.69 65.81 65.07 63.69 65.21 65.22 64.22 64.18 64.63 64.23 64.15 63.98 63.26 63.51 64.24 63.02 62.17 62.13 61.37 60.91 60.41 59.96 60.22
66.68 67.49 68.98 69.96 69.20 69.20 68.93 69.41 69.67 69.27 68.92 68.61 68.15 66.70 65.76 65.94 54.78 55.05 58.51 64.23 64.14 63.92 63.97 62.75 62.80 64.75 56.16 57.04 63.96 63.07 62.88 62.95 57.29 56.69 57.36 57.72 57.98 58.73 61.38 60.89 59.48 58.87 58.12
65.88 67.99 69.47 70.55 69.96 69.20 69.77 70.03 70.25 69.74 69.47 69.01 68.83 68.08 63.19 66.34 53.87 53.01 57.71 61.99 63.13 62.81 62.79 61.86 54.56 60.05 51.77 52.90 63.55 63.53 62.71 61.76 61.87 61.71 61.39 59.24 59.59 59.41 58.01 64.38 62.33 60.15 59.72
67.79 68.08 69.41 70.23 70.83 70.92 70.72 70.57 70.04 69.49 69.39 69.15 68.68 68.45 67.09 64.84 64.11 51.52 52.62 64.77 63.88 63.47 62.40 61.42 60.76 51.86 48.59 47.73 51.93 62.34 61.58 60.77 58.01 61.14 59.78 59.88 61.55 62.44 62.58 62.66 63.59 62.72 60.42
69.38 69.04 69.44 70.30 70.38 70.71 71.00 70.08 69.26 69.34 68.94 68.86 68.53 68.07 67.91 67.68 56.02 52.29 51.77 53.24 59.96 64.44 63.99 61.87 60.39 49.64 46.95 45.51 48.44 49.35 48.08 54.58 59.69 59.21 58.05 56.99 56.68 57.55 58.31 58.94 60.24 61.56 62.34
69.37 69.30 69.45 70.16 70.83 68.98 68.02 68.31 66.83 68.47 67.89 67.84 67.27 66.74 66.65 67.51 67.00 51.77 49.68 51.44 52.79 60.88 62.92 58.30 53.16 47.15 46.35 46.57 47.58 48.11 47.74 56.00 57.22 56.55 55.50 55.32 55.87 56.11 57.41 57.27 58.16 59.02 58.60
69.00 68.29 69.56 69.96 69.76 67.86 67.30 67.82 68.03 67.91 67.48 67.54 67.17 65.69 66.29 65.21 66.87 66.52 61.42 59.91 53.10 57.49 58.81 57.35 53.92 51.64 51.05 55.31 54.88 52.71 55.63 57.14 56.71 56.03 56.32 57.37 58.13 57.43 55.63 56.47 55.54 56.17 55.06
69.35 68.73 68.49 67.93 67.82 67.57 67.43 66.71 68.09 66.76 65.02 66.56 65.51 64.94 64.42 64.11 64.71 59.12 58.42 60.19 60.01 58.23 57.95 54.32 54.91 56.47 53.14 55.73 54.29 59.34 58.79 59.24 57.42 58.05 58.03 58.03 58.07 57.70 57.61 57.85 55.69 55.20 54.03
66.28 65.67 65.35 64.87 64.58 64.69 63.08 61.48 51.81 53.08 49.28 47.64 47.28 55.91 63.17 54.35 46.19 44.56 44.38 45.65 47.28 47.64 55.32 55.39 53.98 53.79 55.29 51.65 54.15 53.59 57.46 57.87 58.75 58.91 58.41 58.18 57.44 57.42 56.89 56.98 55.45 53.73 52.99
64.29 64.56 63.06 63.45 64.98 64.76 65.80 65.67 64.06 56.53 46.90 44.74 43.47 43.11 42.91 47.08 42.73 42.93 42.39 42.21 42.57 46.19 56.69 56.69 55.85 55.77 54.37 53.74 52.36 52.25 53.35 54.74 57.81 55.19 57.26 56.11 56.23 56.43 55.07 54.63 54.26 53.44 53.00
64.22 55.70 63.71 64.67 64.52 64.59 64.92 64.59 64.46 63.30 62.44 62.39 48.06 48.65 44.21 42.39 42.02 42.21 41.48 44.71 50.55 48.82 56.13 58.60 55.57 56.07 56.05 53.53 51.45 50.72 51.53 50.63 51.99 53.47 55.15 56.24 56.67 55.98 54.60 53.87 54.02 53.70 53.38
63.29 63.11 63.23 63.19 63.40 62.31 64.73 64.17 63.67 63.34 62.76 62.22 62.87 51.62 47.73 42.40 42.02 40.57 40.51 57.39 57.71 54.20 53.28 54.91 57.21 56.13 54.93 52.70 51.53 51.76 50.36 50.78 51.28 53.07 54.51 55.65 55.67 55.27 54.46 54.56 54.30 49.31 51.10
61.77 57.50 58.90 61.74 62.21 63.46 63.59 62.47 62.26 62.13 61.85 61.75 62.06 62.76 63.33 54.37 60.25 60.93 57.64 56.78 55.91 56.53 55.95 54.55 54.53 53.86 53.27 53.08 51.84 51.48 51.07 49.95 49.95 51.72 52.36 54.93 55.40 55.40 54.61 54.61 54.56 53.82 53.01
63.71 62.53 58.75 61.57 62.09 62.91 62.34 62.10 62.47 62.57 62.78 62.99 62.97 61.79 50.51 60.81 62.09 62.29 62.13 61.59 58.86 57.88 58.03 56.99 56.23 55.55 52.94 53.73 52.38 52.06 51.51 51.12 50.80 51.41 51.66 52.85 55.93 55.27 55.61 55.49 55.39 55.26 54.71
64.02 63.77 63.06 63.89 63.55 62.81 62.59 62.44 62.46 62.70 63.48 62.52 61.86 60.80 45.65 59.72 61.45 61.46 61.21 61.51 61.96 61.67 61.48 60.30 58.87 58.69 58.46 56.96 55.30 53.46 52.29 51.69 52.32 51.72 52.45 52.49 55.58 55.77 56.29 56.06 55.89 55.86 55.05
62.29 63.09 63.83 63.82 63.66 59.39 62.04 62.62 63.44 63.50 61.54 59.09 58.69 58.93 58.21 58.12 58.25 57.87 57.43 57.70 58.14 58.91 59.00 59.76 59.56 59.56 59.35 58.95 58.41 57.24 55.62 55.69 56.81 55.45 53.58 52.71 52.68 55.57 54.22 55.00 55.35 55.52 55.27
60.79 61.34 61.99 63.10 63.69 62.58 62.48 61.85 58.52 52.36 57.06 57.27 56.98 56.79 56.93 57.03 57.35 57.29 57.48 57.72 58.02 58.28 58.70 58.42 57.96 56.59 56.18 56.70 57.62 58.17 58.25 58.52 58.73 58.65 58.17 56.35 54.94 54.11 54.97 51.98 52.81 53.64 54.10
60.31 60.79 61.33 61.60 61.43 61.06 58.46 57.86 57.46 56.52 55.73 55.77 55.53 54.93 54.96 55.29 55.09 55.64 55.89 56.10 56.34 56.94 57.25 57.28 56.87 55.18 54.89 53.43 53.41 52.99 44.67 32.82 39.84 41.00 53.72 55.60 56.20 55.31 52.34 51.17 50.51 51.26 51.53
60.45 58.26 58.25 59.26 58.85 58.28 57.21 56.17 55.56 54.47 52.85 54.64 55.60 55.97 55.88 55.84 55.82 56.13 56.06 55.42 54.64 54.23 54.70 54.41 54.58 55.51 52.90 50.03 47.64 36.31 32.95 32.52 38.83 33.89 43.83 49.05 51.87 52.04 53.04 51.36 50.57 50.21 49.81

GFSGL_sfc_wetblb_072.txt.gz
Wetbulb
73.72 74.90 75.31 74.49 74.21 73.82 73.50 73.37 73.38 73.47 72.99 72.47 71.88 71.24 70.67 70.74 70.79 70.68 70.61 70.76 70.86 71.24 71.81 71.37 71.45 72.80 73.57 74.18 74.11 73.56 72.05 67.60 59.79 59.67 60.59 61.28 61.73 62.47 62.57 64.31 64.53 63.58 63.61
73.72 73.76 73.94 72.96 73.12 73.22 72.94 73.44 73.93 73.30 72.81 71.91 71.11 70.26 69.64 69.21 69.57 69.37 69.29 70.89 70.53 70.28 70.83 71.14 70.98 71.28 72.31 74.01 73.01 71.34 69.61 65.32 62.40 58.40 58.79 58.73 59.37 60.96 62.88 63.32 63.35 64.27 63.27
73.20 73.30 72.56 72.12 72.58 72.60 72.78 73.01 72.72 72.30 72.04 71.42 70.73 69.48 67.49 66.79 68.48 70.17 69.99 69.51 68.88 69.24 69.28 69.42 70.04 71.02 70.92 71.78 71.02 70.99 68.38 66.02 62.06 59.70 58.12 59.23 58.75 59.79 59.91 61.56 62.14 63.21 63.25
73.50 72.59 71.96 71.54 72.22 72.32 72.60 72.36 71.97 72.16 71.44 71.20 71.01 70.27 68.83 67.42 67.14 68.22 69.24 69.64 69.55 69.03 69.18 68.95 69.06 69.35 69.59 69.86 69.62 68.15 67.24 64.95 62.95 60.68 58.27 57.82 57.98 58.75 59.47 58.20 58.55 59.50 60.08
73.39 71.97 71.91 72.29 72.45 72.27 71.74 71.74 71.62 71.77 71.71 71.61 70.81 70.40 70.03 69.17 67.21 67.62 67.46 67.36 68.07 68.31 68.70 68.57 67.93 65.04 62.74 64.68 68.31 69.49 68.56 66.96 65.13 62.18 58.49 58.04 57.08 56.60 56.36 56.73 56.48 58.46 61.51
72.80 71.49 71.74 72.09 72.33 71.96 71.62 71.37 71.33 71.35 71.52 70.91 70.47 69.97 69.35 68.90 59.18 61.77 65.03 67.62 67.16 67.41 67.85 68.43 68.04 65.06 63.23 61.91 62.59 62.66 65.53 67.31 65.41 62.01 59.45 57.41 57.07 57.87 56.97 57.58 60.39 58.72 56.44
71.82 71.88 71.79 72.41 71.72 71.63 71.41 71.00 70.67 70.79 71.06 70.40 70.22 69.74 69.44 69.43 59.37 59.11 61.49 68.48 67.63 67.88 67.68 68.37 66.89 65.52 65.97 66.89 61.57 61.29 61.70 61.63 63.95 65.43 62.31 60.19 59.24 60.86 59.52 59.45 59.70 59.49 60.05
72.21 71.34 72.08 72.13 71.57 71.62 71.30 71.05 70.97 70.87 70.39 70.37 70.24 69.86 69.40 68.73 58.67 57.34 59.41 67.59 67.88 67.68 67.96 67.32 67.14 68.14 67.06 67.11 67.49 66.94 65.54 65.73 65.57 65.53 65.92 64.99 64.95 63.35 62.43 60.90 60.97 61.94 63.88
71.47 71.83 71.72 71.33 71.45 71.39 71.01 71.21 71.48 70.78 71.68 71.02 71.03 70.65 69.79 69.88 56.42 55.68 60.25 67.39 66.69 67.05 66.84 66.28 65.65 66.69 58.54 58.69 66.77 66.75 66.48 65.53 59.16 57.92 58.37 60.61 60.04 59.24 61.03 61.10 58.93 60.46 59.22
72.36 71.92 71.42 72.34 71.85 71.42 71.70 71.69 71.93 71.95 71.58 71.26 70.80 71.03 66.91 70.23 54.71 53.50 59.06 66.11 65.09 65.49 67.45 66.78 57.02 61.02 55.22 54.87 65.60 65.95 64.37 65.81 65.24 63.68 63.38 60.73 61.17 60.98 59.29 64.29 62.80 59.43 59.95
72.45 71.73 71.40 72.37 72.36 72.32 72.47 72.39 72.03 71.85 71.93 71.49 71.01 71.41 71.24 69.02 67.47 52.43 53.26 66.63 66.99 66.63 66.17 66.07 65.89 52.99 50.72 49.73 50.75 65.11 63.27 65.48 62.68 64.50 64.10 63.53 63.45 63.21 62.98 64.11 65.78 63.02 62.47
73.21 71.82 71.14 72.28 72.23 71.96 72.57 72.26 72.36 72.13 71.43 70.71 70.77 70.24 70.51 71.01 59.22 52.81 51.85 53.10 60.83 67.11 67.14 67.35 65.73 49.68 47.54 46.87 50.55 50.75 52.06 57.13 63.44 62.86 62.23 62.20 62.76 62.91 63.32 64.41 65.61 65.67 65.35
72.81 71.70 71.22 71.94 72.18 72.64 72.37 71.96 70.69 71.27 70.43 70.04 68.61 69.29 71.62 72.91 71.61 53.56 50.73 51.86 53.59 62.61 67.21 62.71 55.42 48.37 47.25 47.19 47.05 48.47 48.29 57.69 60.58 59.93 59.61 59.71 60.53 61.36 63.07 62.64 63.10 63.20 63.43
72.61 72.16 71.88 71.16 71.14 72.35 72.14 71.38 69.95 68.44 68.57 69.38 69.49 71.63 73.17 71.47 68.99 71.59 65.88 61.43 56.45 58.93 60.99 63.49 59.76 55.48 52.54 55.94 54.52 53.09 55.50 56.95 59.25 59.50 59.50 59.44 59.50 58.75 58.33 58.60 57.60 58.07 56.35
71.95 71.26 71.37 70.87 70.57 72.27 71.72 68.40 68.42 70.05 66.69 68.83 68.79 69.53 68.58 67.97 66.42 57.15 60.66 66.37 65.39 60.36 60.21 63.53 61.19 60.99 60.27 61.30 61.18 59.47 56.87 56.93 57.33 57.37 58.27 59.17 58.67 58.69 58.59 58.79 57.77 57.01 55.60
70.29 71.15 71.15 69.37 68.92 67.78 66.92 65.27 53.17 51.98 48.36 48.72 49.81 58.81 65.17 54.94 47.99 46.54 46.36 45.64 45.28 47.27 57.46 58.97 59.34 59.99 58.98 59.48 60.36 56.15 60.08 59.11 60.18 60.46 59.78 59.22 59.20 59.60 59.40 59.36 59.43 57.19 54.71
67.42 66.28 66.28 64.83 64.95 64.75 64.23 65.29 63.60 58.29 50.90 49.45 47.81 45.09 45.08 43.39 43.46 42.38 42.19 42.74 42.54 45.82 56.50 57.42 57.18 57.70 58.01 57.83 58.37 59.60 60.20 58.26 60.49 58.72 58.56 59.41 60.04 59.11 58.07 58.87 59.05 58.48 56.34
65.05 56.15 66.63 66.81 65.38 65.27 65.59 66.08 65.99 64.15 63.68 64.24 48.98 49.69 45.50 43.83 42.38 42.38 42.72 44.04 59.20 52.43 57.75 58.17 58.90 59.10 60.03 58.56 57.35 55.94 56.06 55.05 55.17 54.10 54.85 56.49 55.76 56.69 56.97 57.49 57.70 57.39 56.08
64.35 65.19 65.06 64.07 64.29 62.89 64.30 63.77 63.73 63.61 62.89 63.53 64.81 51.20 49.45 43.51 43.26 42.29 41.55 60.00 62.83 62.77 61.77 57.94 58.17 58.82 59.00 58.14 56.64 53.76 53.98 52.76 51.88 52.20 52.27 52.07 52.38 53.67 55.08 56.83 57.20 50.90 52.51
61.08 58.31 59.41 62.49 62.12 62.32 62.04 61.62 62.01 63.22 63.90 63.68 63.68 62.92 62.67 59.14 62.08 63.20 63.17 64.59 64.25 63.71 61.31 59.12 58.40 57.69 56.04 55.72 54.36 53.37 52.69 52.56 51.16 51.98 51.26 52.70 52.61 53.65 53.63 53.90 54.94 54.16 55.22
66.07 64.46 59.97 64.14 63.57 63.15 62.46 62.22 62.76 62.53 62.44 63.61 63.16 58.80 48.07 61.83 62.56 64.43 65.10 63.19 63.70 64.20 61.99 59.72 59.93 59.80 58.94 56.40 55.50 54.55 53.08 54.01 54.28 53.35 51.69 51.81 52.48 52.63 53.73 54.17 55.15 55.41 54.43
66.03 65.63 64.57 64.17 63.99 63.21 62.69 62.38 62.98 62.72 63.58 62.78 62.48 59.71 47.70 62.41 63.75 63.96 63.90 62.94 63.45 62.66 63.90 63.27 62.32 60.84 59.70 58.78 57.86 56.95 56.19 55.61 54.81 53.96 53.34 53.13 53.37 52.54 52.46 53.36 55.00 55.36 54.23
63.42 63.90 63.58 63.26 63.48 60.07 63.57 63.41 63.77 64.77 64.98 63.49 63.07 61.93 61.15 61.64 61.28 61.09 61.43 61.37 61.03 60.70 60.64 60.59 60.13 59.64 59.64 60.25 60.46 60.48 59.37 58.84 58.90 58.95 56.65 54.52 54.58 54.73 54.86 53.46 53.12 53.87 54.38
61.81 62.57 62.35 62.73 62.44 62.74 63.22 63.58 62.54 55.11 61.11 61.05 60.66 60.50 59.93 59.95 59.17 58.27 58.79 59.06 59.23 59.55 59.91 59.45 58.62 58.47 58.68 58.55 58.82 58.57 55.09 53.08 55.81 56.27 57.05 57.72 57.33 55.75 54.51 53.53 54.02 54.61 53.44
60.63 61.43 62.05 62.12 62.21 62.46 62.41 61.16 59.87 59.25 58.21 57.70 58.80 58.68 58.58 58.07 56.85 56.71 56.99 57.58 57.98 58.48 58.73 59.08 57.43 55.58 54.99 53.30 53.07 53.42 39.08 32.85 42.60 38.24 55.42 55.11 55.67 55.78 54.86 54.49 54.53 53.76 52.46
61.13 62.05 61.35 63.07 60.99 59.46 58.86 57.28 56.86 56.07 55.40 56.27 56.17 56.11 56.16 55.31 55.04 54.95 55.24 55.68 55.81 56.07 56.85 57.20 56.80 56.42 55.96 55.49 53.25 39.72 34.73 33.66 43.42 34.34 51.98 54.58 53.02 52.68 52.14 51.48 50.84 50.91 51.28